Simultaneous Nadir Overpasses (SNOs) Predictions

Prediction of SNOs between NOAA-20 and AQUA Satellite Orbit:

Table of predicted SNOs for the next 14.0 days since TLE Epoch: 3/26/2022
Index Date (NOAA-20) Time (NOAA-20) Lat,Lon (NOAA-20) SZA (NOAA-20 ) Date (AQUA) Time (AQUA) Lat,Lon (AQUA) SZA (AQUA ) Distance(km) Time Diff (sec)
1 03/26/2022 05:05:19 77.13, -12.95 93.90 03/26/2022 05:05:34 77.12, -13.05 93.91 2.64 15
2 03/26/2022 05:55:53 -77.63, 156.60 86.78 03/26/2022 05:54:50 -77.63, 156.63 86.73 0.64 63
3 03/28/2022 20:31:48 -76.39, -67.40 86.23 03/28/2022 20:32:41 -76.40, -67.34 86.29 1.66 53
4 03/28/2022 21:22:11 77.32, 103.64 92.59 03/28/2022 21:21:47 77.31, 103.65 92.61 0.20 24
5 03/31/2022 12:48:36 -76.81, 49.96 87.81 03/31/2022 12:48:50 -76.82, 50.06 87.85 2.82 14
6 03/31/2022 13:39:00 77.67,-138.97 91.06 03/31/2022 13:37:57 77.67,-138.95 91.10 0.56 63
7 04/03/2022 04:14:49 76.74, -1.86 91.24 04/03/2022 04:15:42 76.73, -1.96 91.23 2.79 53
8 04/03/2022 05:05:23 -77.25, 167.59 89.44 04/03/2022 05:04:58 -77.26, 167.66 89.43 1.72 25
9 04/05/2022 20:31:40 77.01, 115.01 89.86 04/05/2022 20:31:53 77.01, 115.00 89.85 0.22 13
10 04/05/2022 21:22:07 -77.81, -74.06 91.22 04/05/2022 21:21:03 -77.80, -74.13 91.15 1.70 64
11 04/08/2022 11:57:58 -76.75, 62.43 90.83 04/08/2022 11:58:49 -76.74, 62.34 90.85 2.67 51



Historial Predications of SNOs between NOAA-20 and AQUA
